Location: Cran-Gévrier
(45.9039°N, 6.1012°E)
Time: 03:25:59
(UTC+00:00)

Cosmos 841 Rocket - Visible Passes

Search period start: 25 July 2024 00:00
Search period end: 04 August 2024 00:00
Orbit: 744 x 770 km, 74.0° (Epoch: 24 July)

Date Brightness Start Highest point End Pass type
(mag) Time Alt. Az. Time Alt. Az. Time Alt. Az.
25 Jul 3.8 03:14:51 10° S 03:20:04 70° ESE 03:25:19 10° NNE visible
26 Jul 4.7 02:34:58 10° S 02:39:49 39° ESE 02:44:41 10° NE visible
27 Jul 5.5 01:55:41 10° SSE 01:59:42 22° E 02:03:42 10° NE visible
27 Jul 3.9 03:36:00 10° SW 03:41:07 52° WNW 03:46:17 10° NNE visible
28 Jul 6.0 01:17:36 10° ESE 01:19:41 12° E 01:21:47 10° ENE visible
28 Jul 3.5 02:55:55 13° SSW 03:00:40 89° WNW 03:05:59 10° NNE visible
29 Jul 4.1 02:16:35 18° S 02:20:21 52° ESE 02:25:28 10° NNE visible
30 Jul 5.0 01:37:14 18° SSE 01:40:09 29° E 01:44:40 10° NE visible
30 Jul 4.2 03:17:16 12° SW 03:21:49 40° WNW 03:26:47 10° N visible
31 Jul 5.6 00:57:50 13° SE 01:00:06 17° E 01:03:21 10° ENE visible
31 Jul 3.6 02:37:53 22° SSW 02:41:18 69° WNW 02:46:34 10° NNE visible
01 Aug 3.6 01:58:27 32° S 02:00:54 69° ESE 02:06:09 10° NNE visible
01 Aug 5.2 03:39:27 10° W 03:43:17 20° NW 03:47:07 10° N visible
02 Aug 4.4 01:18:59 31° SE 01:20:39 39° ESE 01:25:30 10° NE visible
02 Aug 4.6 02:59:01 16° WSW 03:02:32 32° WNW 03:07:14 10° N visible
03 Aug 5.1 00:39:29 21° ESE 00:40:31 22° E 00:44:30 10° NE visible
03 Aug 3.8 02:19:31 29° SW 02:21:56 53° WNW 02:27:05 10° NNE visible
